Wind_Speed
16 16 17 17 17 17 16 16 16 16 16 16 17 17 16 14 13 12 12 12 12 12 11 10 9 8 8 8 9 10 11 10 9 8 8 8 9 9 9 8 7 7 7 7 7 7 7 6 6 5 5 5 5 4 4 4 3 3 2 2 2 1 1 2 2 3 4 4 4 4 5 6 6 5 5 6 5 5 5 5 6 6 6 6 6
16 16 17 17 17 16 15 16 16 15 15 14 15 14 14 14 13 12 12 11 11 11 11 9 8 7 8 8 9 9 10 10 9 9 8 8 8 8 8 7 6 6 6 6 6 6 6 5 5 4 4 4 4 4 4 3 3 2 1 1 1 1 1 2 3 3 4 4 5 5 5 6 6 5 6 6 6 5 5 6 6 6 6 6 6
15 16 16 16 16 16 15 15 15 15 14 13 14 13 13 12 12 12 11 9 8 8 8 9 8 7 7 7 8 8 9 9 9 9 8 8 7 7 6 6 6 5 5 5 5 5 5 4 4 3 3 3 3 3 2 2 1 1 0 0 1 2 2 3 3 4 4 5 5 5 6 6 6 5 6 6 6 5 5 6 6 6 6 6 7
14 15 15 15 15 15 14 14 14 13 12 12 12 13 12 11 10 10 8 7 5 5 5 7 7 7 7 7 7 7 8 9 9 9 8 8 7 6 5 4 4 4 4 3 3 3 3 3 3 2 2 2 1 1 0 0 0 1 1 2 2 3 3 3 4 4 5 5 6 6 6 6 6 5 5 5 5 5 6 6 6 6 6 7 7
14 14 14 13 12 12 12 12 12 12 12 12 11 11 11 10 10 9 9 9 7 3 4 7 5 5 6 6 6 7 8 8 8 8 8 8 6 6 5 4 2 2 2 2 2 2 2 2 2 2 2 1 1 1 1 1 1 1 2 2 3 3 4 4 5 5 6 6 6 6 5 5 5 5 5 5 5 6 6 6 5 6 6 7 8
12 13 13 12 12 11 11 11 10 10 11 11 10 10 10 10 11 12 13 13 10 4 4 8 5 3 4 4 4 6 8 8 7 7 8 9 8 6 5 4 3 2 1 1 1 1 1 1 1 1 1 1 1 1 1 2 2 2 2 3 3 4 5 5 5 6 6 6 6 5 4 4 5 5 5 6 6 6 6 5 5 6 7 7 8
11 11 12 12 11 11 10 9 9 9 9 9 9 9 10 11 13 15 15 14 10 7 7 8 5 4 4 4 4 5 7 8 7 7 8 9 10 9 6 4 4 4 3 3 2 2 1 0 0 0 0 1 1 1 2 2 2 3 3 3 4 5 6 6 6 6 5 5 4 4 4 4 5 5 5 6 6 6 5 5 5 6 6 7 7
10 11 11 10 10 10 10 8 8 8 8 8 8 9 11 12 13 15 15 13 11 10 9 8 6 5 5 3 3 4 6 7 7 7 8 8 9 10 9 6 4 4 4 4 5 4 2 1 1 0 0 1 1 1 2 2 3 3 3 4 4 5 5 5 5 5 4 4 3 3 4 4 4 5 5 5 5 5 5 4 5 5 6 7 7
11 10 11 11 10 10 10 9 8 8 9 8 9 10 11 11 12 14 14 13 12 12 11 9 9 7 5 4 3 3 5 6 6 7 7 7 6 7 9 8 4 3 3 4 4 5 3 1 1 1 1 1 1 1 2 2 3 3 3 4 4 4 4 4 4 3 3 3 3 3 3 4 4 4 4 4 4 4 4 4 5 5 6 7 6
11 10 11 11 11 10 9 10 10 9 9 9 9 11 11 11 11 12 13 13 13 14 13 11 11 9 6 5 5 4 4 5 5 5 5 4 4 4 6 7 5 4 3 2 3 5 3 1 1 1 2 2 1 2 2 3 3 3 3 4 4 4 4 3 3 3 3 3 3 3 3 3 3 3 3 3 3 3 4 4 5 5 6 6 6
11 10 11 10 10 10 10 10 10 10 9 9 9 10 10 11 11 12 13 15 15 14 12 11 12 10 6 6 7 6 4 3 3 3 3 2 1 1 3 6 6 5 3 2 4 6 4 1 1 1 2 2 2 2 2 2 2 3 3 3 3 3 3 3 3 3 3 3 3 2 2 2 2 2 2 2 3 3 3 4 5 6 6 6 6
11 11 11 10 10 10 11 11 10 10 9 8 9 9 10 11 12 13 15 17 15 12 9 9 12 12 8 6 6 7 6 5 3 1 1 0 1 1 1 3 5 5 5 4 5 7 7 4 3 2 2 1 2 3 2 2 2 2 3 3 3 3 3 3 3 3 3 3 2 2 2 2 2 2 3 3 3 4 4 5 5 6 6 6 7
12 11 10 10 11 11 11 11 10 10 9 8 9 10 10 11 12 14 16 17 15 12 11 11 13 12 9 6 5 7 9 9 7 5 5 3 3 2 1 2 4 5 5 4 5 7 8 8 6 4 3 3 3 3 3 3 3 3 3 3 3 3 3 3 3 3 3 3 2 2 3 3 3 4 4 5 5 5 6 6 6 7 7 8 8
12 11 10 10 11 11 11 11 10 10 9 9 9 9 10 11 12 14 15 16 15 13 13 12 10 9 8 7 7 9 10 10 10 9 7 5 5 4 3 3 4 6 5 5 6 6 6 8 7 6 5 5 4 4 4 4 3 3 3 3 3 3 3 3 3 3 3 3 3 4 4 4 5 5 6 7 7 8 8 8 9 9 9 9 10
12 11 11 11 11 10 11 10 10 9 9 9 9 9 10 11 12 13 14 15 16 14 13 12 10 8 8 8 8 9 9 10 11 10 9 8 6 5 5 4 4 6 7 7 7 6 6 7 7 7 6 5 3 3 3 3 3 3 2 2 2 3 3 3 3 4 4 4 5 5 5 6 7 7 8 8 9 9 10 10 10 11 11 11 11
12 12 11 11 12 11 10 10 10 9 9 8 8 9 9 10 11 12 14 14 16 16 13 13 12 11 9 7 6 7 7 8 9 8 8 9 8 8 7 5 4 5 6 7 8 8 7 7 7 7 6 5 3 3 3 3 2 2 2 2 2 3 3 4 4 5 5 6 6 7 7 8 8 9 9 10 10 11 11 12 12 12 12 13 13
13 13 12 12 12 12 11 10 10 9 9 8 8 9 10 10 10 11 12 13 14 16 15 14 14 13 10 7 5 5 5 6 9 7 7 9 9 10 9 7 5 5 6 6 7 8 8 8 8 7 6 5 4 3 2 2 1 1 2 2 3 4 4 5 5 6 6 7 7 8 9 9 10 10 11 11 12 12 13 13 13 14 14 14 14
15 14 13 12 12 12 11 11 9 10 10 8 8 9 9 9 9 9 9 11 14 16 15 14 14 12 10 7 4 3 3 6 9 7 7 8 8 10 11 8 6 6 7 6 6 7 7 8 8 7 6 6 5 3 2 1 1 1 1 2 3 4 5 5 6 7 7 8 8 9 10 10 11 11 12 13 13 13 14 14 14 15 15 15 15
15 14 13 12 12 11 11 11 9 10 10 9 9 9 9 9 8 8 8 11 13 14 14 13 12 12 11 8 5 4 3 7 9 6 7 8 7 10 10 8 8 8 7 7 6 6 6 7 7 7 6 6 6 4 2 2 2 2 2 3 4 4 5 6 6 7 8 9 9 10 10 11 12 12 13 14 14 15 15 15 15 16 16 16 17
15 14 14 13 12 11 11 11 10 10 10 10 9 8 8 8 8 8 8 9 10 12 13 12 11 12 11 9 7 6 4 6 7 6 7 7 6 8 8 8 9 9 8 8 7 5 5 7 7 7 6 6 6 4 2 2 2 3 3 4 4 5 5 6 7 7 8 9 10 11 12 13 13 14 15 15 16 16 17 17 17 17 17 17 18
15 15 14 14 13 12 11 11 10 10 9 9 9 8 7 6 6 7 8 8 9 10 12 12 13 14 12 10 8 6 5 5 6 7 7 6 7 8 4 5 9 9 9 7 5 5 6 7 7 6 5 5 6 5 3 2 2 3 4 4 5 5 6 6 7 8 9 10 12 13 14 15 16 16 17 18 18 18 19 19 19 20 20 20 20
16 16 16 15 14 13 11 10 9 10 10 10 9 8 6 5 5 6 7 8 9 10 11 12 14 15 13 10 8 8 8 7 7 8 9 7 8 8 2 3 7 7 6 5 4 6 7 7 6 5 5 5 5 5 4 4 4 4 4 5 5 6 6 7 8 9 10 12 13 14 16 17 18 19 19 20 20 21 21 21 22 22 22 22 22
17 17 17 16 14 14 13 11 10 10 11 11 10 7 5 4 4 5 7 8 8 9 11 11 12 13 13 11 10 11 10 8 7 7 9 9 8 7 4 3 5 5 4 4 4 5 6 5 4 4 5 5 5 6 6 6 6 5 5 6 7 8 8 9 10 11 12 13 15 16 18 19 20 21 21 22 22 23 23 24 24 24 24 24 25
18 18 17 16 15 14 14 13 12 11 12 12 10 8 6 4 3 4 6 7 7 8 10 10 11 12 12 11 11 13 12 9 7 6 6 6 7 8 6 4 5 5 5 6 6 5 5 5 4 2 3 4 6 7 8 8 8 7 7 8 9 10 11 12 13 14 15 16 17 19 19 20 20 21 22 22 23 24 24 25 25 25 25 25 25
19 18 17 17 16 15 15 14 13 12 11 11 10 9 9 7 5 5 6 7 7 7 8 9 10 10 10 11 11 13 13 10 7 6 4 3 6 9 8 7 7 6 6 8 9 8 7 5 4 3 3 4 5 8 9 10 11 11 11 11 12 13 14 15 16 17 18 18 18 19 19 19 19 20 21 21 22 22 23 23 24 24 25 25 25
20 19 17 16 16 15 15 14 13 12 12 12 11 10 10 10 9 7 7 9 9 8 8 8 9 10 10 10 10 12 13 11 9 7 6 4 4 7 9 9 10 8 7 8 10 10 7 4 5 6 6 5 6 8 10 11 13 14 14 14 15 16 17 18 18 18 18 18 18 18 18 18 19 20 20 20 21 21 21 22 22 23 23 24 25
20 19 17 16 16 15 15 14 14 13 13 14 13 12 12 11 10 10 9 10 10 9 9 9 10 10 10 10 11 13 14 13 10 8 8 6 4 5 8 9 10 9 9 10 10 10 8 6 8 9 8 7 8 8 10 12 14 14 15 16 17 18 18 18 18 18 19 18 18 18 18 18 18 19 19 19 19 20 21 22 22 23 23 24 24
21 19 17 17 16 16 16 15 15 15 15 15 14 14 13 12 11 11 10 11 11 10 10 10 10 10 10 11 12 14 15 13 10 8 8 8 7 7 8 8 8 9 10 11 10 9 8 8 9 9 9 9 8 9 10 12 14 15 16 17 19 19 19 19 19 19 20 20 19 19 18 18 18 18 18 19 21 22 22 23 23 23 24 24 24
20 19 18 17 17 17 17 17 17 16 15 15 15 14 14 13 12 11 10 10 10 11 11 11 11 11 11 11 12 13 14 13 11 9 8 8 7 8 8 8 9 10 11 12 11 9 8 9 9 8 8 8 7 8 10 13 15 16 18 19 19 19 19 19 19 20 20 19 19 18 17 17 17 19 20 21 22 22 22 22 22 22 23 23 23
20 20 19 18 17 17 18 18 18 17 16 16 15 15 15 15 14 13 11 11 10 11 12 12 12 12 12 12 12 13 13 14 14 11 9 8 7 8 10 11 12 11 12 13 12 11 10 11 11 9 8 7 7 8 11 14 16 17 19 19 18 18 18 18 19 19 18 17 16 15 15 16 18 20 21 22 22 22 22 21 22 22 22 23 23
22 21 20 19 18 18 18 18 19 18 16 16 16 16 16 16 16 15 13 14 13 12 12 13 13 13 13 13 13 13 13 15 16 14 12 11 10 10 12 13 12 11 11 13 13 11 10 12 13 11 11 10 10 12 14 15 16 17 17 17 17 17 18 18 17 16 15 13 12 13 15 18 21 22 22 22 22 22 22 21 21 21 21 22 22
25 23 22 21 20 20 19 19 19 19 18 17 16 16 17 16 17 16 15 16 16 14 13 13 14 14 14 14 14 13 13 16 18 17 16 15 14 14 14 12 10 9 10 11 12 10 8 11 13 12 11 12 12 13 15 15 14 15 15 16 17 17 17 16 15 13 11 11 12 14 18 21 22 23 22 23 23 22 21 20 20 19 20 20 21
28 26 25 24 23 22 21 21 20 20 20 19 18 18 18 17 17 17 17 18 18 16 14 14 15 14 14 15 14 13 13 14 16 17 17 17 16 15 13 11 9 8 9 10 12 11 9 10 12 11 11 12 13 13 14 14 12 13 14 15 15 15 14 13 12 11 11 12 14 17 21 24 24 23 23 23 23 21 19 19 19 18 18 18 18
31 30 28 27 26 25 24 23 22 22 21 21 20 19 19 18 17 17 18 19 19 18 17 16 16 15 15 15 15 14 14 13 14 15 15 15 15 14 12 12 11 9 9 10 12 13 11 10 11 12 11 12 13 12 12 12 12 13 14 14 14 13 11 11 12 13 13 14 16 20 24 25 24 23 23 23 21 19 19 18 17 15 14 14 13
34 33 31 30 29 28 27 25 24 23 23 22 22 22 21 21 20 19 19 19 19 19 19 18 17 17 16 16 16 16 16 15 14 14 14 15 14 14 13 14 14 12 11 11 13 14 15 13 12 12 12 12 12 11 10 11 13 15 16 15 14 12 11 12 14 15 16 16 19 24 26 25 24 23 22 20 18 18 17 15 12 11 9 8 8
37 35 34 32 31 30 30 29 27 26 25 24 23 23 23 23 22 21 20 20 20 19 19 19 18 18 18 17 16 16 16 16 16 16 16 16 16 16 15 15 16 15 14 14 15 16 17 17 15 13 13 13 13 11 11 12 14 16 17 17 16 15 14 14 16 17 18 19 23 26 26 24 23 21 19 17 16 14 12 10 9 8 8 8 9
39 37 36 35 34 33 32 31 30 29 27 26 25 24 24 24 23 23 22 22 22 21 19 19 19 19 19 18 17 16 16 16 16 17 17 17 17 17 17 17 17 16 16 16 17 17 19 20 18 16 15 15 15 12 11 14 17 17 18 18 18 18 18 18 18 20 21 23 25 25 23 22 20 18 16 15 13 11 10 9 8 7 8 9 10
40 39 38 37 36 35 34 33 32 31 30 29 28 26 25 25 25 24 23 23 23 22 21 20 19 19 19 19 18 17 17 17 16 16 17 17 18 18 18 18 17 17 17 18 18 19 21 21 21 20 18 16 16 14 12 16 19 20 21 21 20 20 21 21 20 22 24 26 25 22 21 20 19 17 15 13 12 11 9 8 7 9 10 11 12
42 41 40 39 38 37 35 34 34 33 32 32 31 29 28 28 27 26 25 24 23 23 23 22 21 20 20 20 19 19 20 19 18 17 17 18 18 18 18 17 17 17 19 19 20 21 22 22 21 21 19 17 17 16 15 18 20 21 23 24 23 22 22 22 23 24 25 24 21 19 20 19 16 14 13 13 14 12 8 8 9 11 12 13 15
45 43 42 40 39 38 37 36 35 34 34 34 33 32 31 30 30 28 27 27 25 25 24 23 22 22 21 20 20 21 21 21 20 18 18 18 18 19 18 18 18 18 19 19 19 20 21 21 20 19 18 18 18 17 18 19 21 22 23 25 25 24 23 24 25 26 24 21 19 19 19 17 13 11 11 15 17 12 9 10 11 12 14 15 17
47 45 44 42 41 40 39 38 37 36 36 36 35 34 33 32 31 31 29 28 27 26 25 24 24 23 22 22 22 21 21 21 21 20 19 19 19 20 19 19 19 19 19 19 19 19 19 19 19 17 18 19 19 19 20 20 22 25 25 26 26 24 24 25 25 24 21 19 19 18 16 14 12 10 12 18 19 15 13 12 12 13 15 17 19
49 47 46 45 44 42 41 39 39 38 38 37 36 35 33 32 32 32 31 30 29 28 27 26 25 24 23 22 22 22 22 21 21 21 21 20 20 21 20 20 20 20 20 20 20 19 18 18 18 17 18 20 19 19 21 22 24 26 26 26 26 25 25 24 23 22 20 20 20 18 13 11 11 11 14 19 20 18 16 14 13 14 16 19 22
49 48 47 47 45 44 43 42 41 40 40 39 37 35 34 33 32 32 32 31 31 30 29 28 26 25 24 23 22 22 22 23 23 23 23 22 22 21 19 19 19 19 19 20 19 19 18 19 18 18 20 21 20 20 22 23 25 26 26 26 25 25 24 23 21 20 20 21 22 18 11 8 11 13 16 19 20 19 17 14 13 15 18 21 22
49 49 48 48 47 45 44 43 43 42 41 40 38 36 35 33 33 33 32 32 32 31 30 29 28 26 25 24 23 22 22 22 22 22 23 24 23 21 19 18 18 18 18 19 19 19 19 20 20 20 21 22 22 22 22 23 24 26 26 25 24 22 21 21 21 20 20 23 23 19 11 8 12 15 17 18 19 18 14 12 14 17 20 21 21
49 49 49 48 47 46 45 45 44 43 42 41 39 38 36 34 33 34 34 34 33 32 31 30 29 28 27 26 25 24 23 22 21 21 21 22 23 23 21 20 21 21 21 21 21 20 21 22 22 22 21 22 23 23 22 22 23 23 24 22 20 19 19 19 20 20 20 22 23 17 11 10 14 17 17 17 18 17 12 10 14 19 20 20 20
48 49 49 49 48 47 46 45 44 44 43 42 40 39 38 36 34 34 34 35 34 34 33 31 30 29 28 28 27 26 24 23 23 22 22 21 22 23 23 23 24 24 24 24 23 23 23 23 23 23 21 21 23 22 20 19 20 20 20 19 17 17 18 19 20 21 21 22 21 15 11 12 15 17 16 15 17 15 9 10 15 18 18 18 20
48 49 49 50 49 48 47 45 45 44 43 41 40 40 38 36 34 33 34 35 36 35 34 33 32 31 30 29 29 27 26 26 25 24 24 23 23 23 24 25 26 27 27 26 26 25 25 23 23 23 22 21 22 22 19 18 19 19 19 18 17 18 19 19 20 21 21 22 18 12 11 14 17 17 15 14 15 12 7 10 16 18 18 19 20
47 48 49 50 50 49 47 46 45 44 42 41 40 40 38 36 34 33 33 35 36 36 35 34 33 32 31 31 30 29 29 28 27 25 25 24 24 25 26 26 26 27 27 26 25 26 25 24 24 23 23 22 22 21 19 20 20 20 19 18 18 18 19 20 20 20 20 20 15 11 12 14 17 17 14 13 14 9 6 11 16 17 18 19 19
46 48 49 49 50 49 48 47 45 44 42 40 40 39 38 36 34 33 33 33 34 35 35 34 33 33 32 32 31 31 31 30 28 27 26 26 26 27 28 28 28 29 28 25 25 26 26 25 25 24 24 23 22 20 20 20 20 20 20 20 18 19 20 21 20 19 18 16 11 10 12 14 16 16 13 11 11 8 8 14 17 16 17 18 19
44 46 48 48 49 49 49 48 46 44 42 40 39 38 37 37 36 34 32 32 32 33 33 32 33 33 33 33 32 32 32 31 29 28 27 27 27 28 29 29 30 31 28 25 25 27 26 26 25 24 24 23 22 20 20 20 20 20 20 20 19 20 20 20 19 18 15 13 11 11 13 14 15 16 12 10 8 7 9 15 17 16 16 17 18
43 44 46 47 48 49 49 48 47 45 43 41 39 38 37 37 37 35 33 32 32 31 30 30 31 33 34 34 33 33 33 31 30 30 29 28 28 28 28 28 30 30 26 24 24 25 25 24 23 22 22 22 22 22 21 21 21 21 21 20 20 20 20 18 16 15 12 11 12 13 14 15 16 15 12 9 8 7 10 15 16 16 16 17 20
Wind_Direction
138 139 137 136 135 134 133 133 134 134 136 135 134 134 134 135 132 128 121 115 113 109 110 111 105 102 99 91 86 82 80 83 84 86 89 90 91 94 97 96 100 103 105 103 100 98 96 97 97 95 97 97 99 96 95 94 91 90 88 89 87 75 36 10 354 352 355 351 343 339 339 335 334 339 342 339 340 343 349 354 355 2 8 13 21
141 141 140 140 139 140 141 140 139 137 140 140 138 135 134 132 128 124 121 116 112 107 106 109 105 99 95 89 90 84 76 75 72 72 74 78 80 86 94 97 98 96 99 101 97 95 92 93 91 91 95 92 95 93 91 91 88 87 79 89 78 10 332 329 331 340 342 336 334 331 332 331 332 338 341 342 350 355 360 5 5 7 12 19 26
145 144 143 144 146 146 146 146 144 141 142 144 139 137 138 136 129 125 123 121 120 117 110 106 96 90 88 86 95 91 82 75 69 70 71 71 74 80 91 100 109 109 108 109 103 101 96 92 89 85 87 86 95 97 96 94 84 88 350 313 295 302 306 317 324 330 329 327 330 330 334 339 339 343 347 351 2 7 9 10 8 11 18 27 32
148 149 149 150 151 150 149 149 148 146 146 147 145 143 145 141 135 135 138 141 138 138 137 124 93 77 82 85 98 98 91 83 71 70 65 65 71 71 77 87 104 114 117 121 113 111 105 95 85 83 84 79 98 114 144 192 335 294 290 287 288 294 302 316 321 322 324 325 329 334 340 346 349 352 356 0 8 12 13 10 8 17 27 34 36
151 150 155 159 158 156 154 154 151 152 153 153 154 150 149 145 147 155 159 159 151 141 163 153 110 71 84 84 98 103 95 88 76 69 58 56 65 63 65 67 79 101 107 118 119 116 110 103 94 94 108 109 148 216 259 268 274 271 276 282 292 300 304 312 318 319 321 326 332 341 349 354 358 1 5 8 11 12 12 9 13 26 35 36 32
154 153 160 165 164 160 157 159 159 160 158 158 160 156 155 154 155 159 156 152 146 133 163 161 138 91 89 70 91 103 93 90 81 68 60 60 62 62 62 62 69 81 75 62 55 110 106 115 115 110 133 155 182 220 249 260 263 264 272 288 300 306 308 313 317 318 322 330 335 345 355 0 4 6 9 10 10 10 9 10 22 35 35 29 24
161 159 163 165 161 156 157 161 160 159 159 161 163 162 164 161 157 156 153 147 139 121 133 146 142 117 91 68 92 104 94 93 82 70 72 72 65 60 60 66 74 68 61 53 46 60 63 46 126 149 209 224 225 233 252 264 274 280 287 298 306 305 306 310 315 319 326 334 340 350 359 5 7 7 8 7 6 7 9 16 29 36 29 18 14
164 162 163 161 157 154 156 159 155 158 160 162 165 166 169 166 160 159 157 152 142 131 129 136 147 126 96 93 101 95 93 90 82 84 87 81 68 60 58 64 76 69 57 54 52 50 49 45 41 62 297 291 271 263 269 285 295 302 305 308 312 309 308 313 319 326 334 341 348 357 2 6 6 5 3 2 3 5 9 18 26 24 14 5 3
165 165 163 162 160 155 156 160 161 164 162 162 166 168 172 172 168 165 163 161 155 151 145 147 161 144 116 135 127 94 90 85 88 93 90 82 72 63 57 53 64 92 68 53 49 33 29 44 45 49 40 16 338 311 303 311 319 322 325 327 329 326 326 331 335 341 349 357 1 3 5 5 4 4 2 1 3 7 11 15 14 9 1 356 356
170 168 165 167 164 157 157 162 165 165 162 164 167 166 167 172 173 167 165 167 165 163 158 155 163 158 142 150 155 152 112 91 99 97 88 84 69 58 52 46 57 96 87 55 31 12 0 327 340 5 5 11 8 351 336 335 341 341 343 348 352 349 350 356 358 0 5 8 7 7 3 359 2 3 5 7 6 8 13 9 4 1 356 353 354
171 166 168 171 163 157 158 161 162 161 163 165 166 165 164 169 172 165 162 163 162 162 165 169 173 173 167 160 165 175 167 128 125 107 96 95 59 41 42 38 49 70 64 46 31 21 17 349 317 327 337 351 9 9 2 358 4 5 4 7 13 14 13 14 14 14 15 13 13 8 359 352 354 357 1 5 6 6 8 3 359 356 353 350 351
172 167 169 169 161 158 160 161 159 159 163 164 159 161 163 165 166 163 163 163 161 156 152 162 172 174 172 166 169 181 187 191 197 196 162 175 277 268 358 10 22 46 54 56 52 43 42 44 34 2 349 9 25 29 37 42 44 37 34 34 33 31 24 22 21 19 18 16 17 10 355 346 342 341 345 349 349 349 348 346 344 342 340 340 340
176 174 170 165 161 160 161 163 161 160 163 163 160 164 166 165 165 163 164 167 167 156 141 142 155 161 163 165 169 178 185 191 201 223 244 253 249 257 290 329 0 37 55 58 57 54 46 41 42 36 33 52 54 54 61 62 62 54 49 44 41 36 27 25 24 23 22 17 17 8 355 345 339 336 335 335 334 333 331 330 329 327 326 326 327
178 177 171 165 163 161 163 165 166 165 163 161 162 168 170 167 167 165 166 172 175 167 153 150 160 161 155 155 157 166 178 183 183 193 219 237 238 248 273 301 349 23 37 43 47 53 47 36 42 47 45 52 59 63 67 68 63 53 51 45 40 37 29 26 25 22 18 12 9 4 357 349 342 337 334 332 329 328 326 325 323 321 320 319 319
177 177 172 166 167 166 164 163 164 164 160 159 157 159 164 164 166 168 171 178 181 179 170 166 175 170 153 153 157 165 183 190 183 181 191 212 236 252 263 284 331 10 31 48 49 50 47 35 40 48 45 44 47 50 55 62 62 56 58 53 46 36 27 24 18 14 9 4 1 358 354 349 344 339 336 334 331 329 328 326 323 321 320 319 317
175 174 170 168 171 171 168 162 161 160 156 157 158 156 159 162 166 169 175 181 185 186 181 175 180 179 167 162 161 176 198 198 194 194 193 202 227 250 261 275 297 337 11 42 49 47 46 38 37 39 36 34 34 27 30 42 53 63 70 63 51 34 23 17 11 7 2 358 356 352 349 346 342 339 337 335 333 331 329 327 325 322 320 319 318
175 172 169 169 170 170 168 163 160 158 154 155 160 160 160 162 166 172 178 183 183 181 176 173 178 181 178 174 176 197 214 202 197 209 211 208 224 247 259 266 275 306 336 13 35 38 40 34 29 28 27 28 27 10 357 16 29 45 62 57 47 33 20 15 9 5 1 356 353 350 346 343 340 337 335 333 332 330 328 326 324 322 320 319 318
179 175 171 170 171 170 167 165 161 154 151 154 158 160 161 162 164 171 180 180 177 177 178 178 181 182 180 181 190 197 207 204 199 206 214 215 234 243 246 256 260 284 314 335 3 21 28 27 28 31 30 28 25 9 338 346 10 15 42 47 43 33 21 12 6 1 358 353 350 347 344 341 338 335 333 331 329 327 325 324 323 322 320 318 317
183 181 176 172 174 175 169 168 166 157 152 154 157 159 161 158 157 160 167 174 178 183 187 187 184 180 176 174 175 166 176 198 201 206 206 217 242 232 230 248 256 269 295 310 330 358 12 15 21 26 28 24 20 21 357 334 348 353 17 37 40 31 19 8 0 355 352 348 346 343 340 338 335 333 330 328 326 324 323 322 321 320 318 317 317
188 186 184 179 177 181 178 173 170 161 155 156 155 156 157 155 157 160 165 173 180 186 191 192 183 177 175 172 169 164 165 187 199 212 209 215 223 209 223 252 254 263 277 288 305 327 351 357 1 7 16 17 15 25 21 343 338 348 4 20 26 23 13 3 354 349 347 345 342 340 337 335 332 330 327 324 322 321 320 319 317 316 315 314 314
196 194 191 189 183 184 188 181 172 167 162 161 159 155 153 155 162 167 172 176 176 177 183 188 181 178 180 181 180 173 162 172 190 205 207 202 191 188 218 251 237 246 252 258 286 309 326 338 347 359 12 15 11 17 26 17 358 357 2 5 8 10 4 357 349 345 343 341 340 338 335 333 330 327 325 322 320 319 317 316 315 314 313 312 311
201 200 196 194 188 187 195 192 180 174 167 164 166 159 149 155 173 176 172 173 177 174 176 181 179 182 188 190 193 186 171 170 182 194 198 190 185 188 198 224 218 229 238 243 281 311 319 323 329 351 15 21 14 11 17 22 14 5 359 353 353 356 355 350 344 341 340 338 337 335 332 330 327 324 322 320 319 318 316 315 314 313 312 310 309
202 201 197 194 192 191 197 200 193 182 171 166 169 165 152 151 175 185 175 171 179 179 181 185 183 188 195 196 197 192 180 175 176 180 188 195 199 195 196 226 225 227 246 261 278 301 310 309 310 340 19 29 26 24 21 19 15 8 360 352 348 345 344 341 338 336 335 334 333 332 330 327 324 322 321 319 319 318 317 316 315 314 313 311 309
205 202 197 194 195 195 198 203 202 192 182 177 176 176 176 170 176 194 189 182 184 183 186 190 185 184 191 198 197 194 191 183 171 169 177 201 212 204 205 227 217 212 240 252 255 274 288 291 302 330 19 20 16 18 18 16 13 5 357 352 345 341 339 337 335 335 334 333 332 331 330 327 325 324 322 321 320 319 319 318 317 317 316 314 313
207 203 199 197 197 198 200 203 204 199 194 191 187 186 190 191 193 204 204 201 197 190 191 193 187 178 181 192 194 192 195 188 176 178 178 196 216 214 219 226 218 221 241 243 247 265 275 278 290 300 324 342 346 353 1 4 3 359 352 347 343 342 341 340 340 339 337 334 332 330 328 326 325 325 323 322 321 321 321 320 320 320 319 318 316
208 203 201 202 201 202 203 206 206 204 202 202 199 198 200 200 199 203 205 205 201 193 191 194 191 184 179 182 184 185 188 185 181 190 191 186 209 219 221 225 229 236 245 242 247 258 263 272 286 285 295 313 322 333 342 346 350 352 346 340 341 342 343 344 342 339 337 333 330 328 326 326 325 325 324 323 323 323 324 324 323 321 320 318 317
208 206 203 204 205 206 207 209 210 209 207 206 206 208 210 207 203 204 205 203 201 197 193 194 194 192 187 182 178 176 177 182 192 205 208 205 212 227 226 229 237 240 243 247 253 257 256 268 279 276 279 298 312 319 327 331 334 339 337 333 335 338 339 339 336 333 332 331 330 330 330 331 331 331 329 327 327 327 328 328 326 324 321 319 317
206 208 208 208 208 210 211 212 213 214 211 206 206 211 216 217 212 210 208 203 203 203 197 197 200 197 195 190 183 177 177 188 207 221 227 222 216 226 233 237 247 253 252 252 253 250 251 261 269 268 269 281 297 304 309 315 318 323 326 325 328 330 331 329 328 327 328 330 332 333 335 337 338 338 337 335 334 332 331 329 326 324 322 319 317
206 207 210 213 212 212 214 216 217 215 212 209 207 209 216 222 222 220 217 212 210 209 205 204 204 203 203 199 194 190 189 199 217 226 230 225 213 220 238 253 262 267 263 257 249 241 244 258 263 266 269 273 281 286 291 299 306 313 317 319 320 321 322 322 324 326 328 331 333 335 338 340 342 342 341 338 336 333 329 326 323 320 318 315 313
212 211 214 216 215 215 214 215 219 219 215 213 212 211 214 221 227 228 227 226 220 215 215 213 209 207 209 206 203 202 203 211 220 223 225 225 221 230 248 260 263 262 256 254 253 244 242 250 256 264 272 276 283 286 289 297 303 309 311 311 312 314 318 322 325 327 330 332 334 337 341 343 344 344 341 337 333 330 328 324 320 317 313 310 307
219 217 217 218 218 219 217 213 215 219 220 219 218 218 216 219 226 229 229 230 228 221 218 217 215 213 213 211 208 205 207 212 216 219 225 228 233 244 252 258 259 254 244 246 251 246 240 242 246 258 271 278 287 294 296 300 304 305 305 307 311 318 323 326 327 328 330 335 336 339 344 346 346 343 339 335 332 330 326 322 319 314 310 307 304
222 221 221 222 222 224 224 219 216 218 221 222 221 223 222 222 225 227 227 229 231 228 222 219 217 216 216 215 215 212 210 210 212 218 225 229 235 241 244 249 250 245 238 243 252 250 241 244 244 248 262 274 285 294 297 300 304 308 311 316 321 326 328 327 327 330 334 338 339 343 348 348 345 340 336 333 330 327 323 319 317 314 313 311 309
223 223 223 225 227 228 229 227 224 223 222 222 223 224 226 226 224 225 227 229 231 231 228 223 219 219 220 219 220 220 217 216 216 219 223 226 230 232 234 239 241 238 238 246 258 257 243 245 253 254 261 276 287 294 298 303 311 317 320 325 328 329 327 325 330 338 341 342 344 348 348 345 342 338 334 330 327 323 321 321 321 321 321 319 318
225 225 225 226 230 232 232 231 231 230 228 226 224 224 228 230 228 226 227 228 231 231 231 229 224 222 223 223 223 222 222 223 222 223 225 227 228 229 231 238 238 238 247 256 265 266 254 244 253 261 266 279 289 297 302 308 318 323 325 331 333 331 327 327 336 344 345 345 347 347 345 342 339 334 329 326 324 325 327 327 326 325 323 320 321
228 227 227 228 230 232 234 233 233 233 233 231 228 227 228 231 233 232 230 230 231 230 231 233 231 228 227 227 228 226 225 226 226 226 230 233 237 238 238 241 240 239 248 259 266 272 270 261 258 266 275 285 296 306 308 310 318 324 329 337 338 333 331 332 337 343 346 347 347 345 343 339 334 329 326 326 329 332 332 331 330 331 330 331 338
230 230 230 230 231 233 235 235 235 234 234 234 233 231 229 231 233 235 235 236 235 233 233 234 234 233 230 229 230 229 228 228 228 228 230 234 240 244 245 247 248 246 247 256 264 271 277 277 276 283 294 299 304 311 312 313 320 325 331 338 337 334 336 339 338 341 346 347 345 342 339 336 332 330 330 334 338 339 339 341 346 348 349 352 354
233 233 233 233 233 234 235 237 237 237 236 236 236 235 233 233 234 234 236 237 238 238 237 236 236 235 234 233 232 232 232 232 230 228 231 235 239 244 249 250 253 255 254 257 264 269 276 281 286 293 300 304 307 310 314 317 322 328 334 338 336 335 339 341 340 343 346 343 340 339 338 338 339 339 341 344 347 352 357 1 356 350 349 351 351
234 235 235 235 235 235 236 237 238 239 240 240 240 240 240 239 238 236 235 235 237 239 239 237 237 236 237 238 236 236 238 239 237 234 234 238 241 244 248 251 254 257 258 261 264 268 272 279 286 293 299 304 307 309 316 319 321 329 336 335 335 338 339 340 342 343 341 337 337 341 343 344 346 347 350 358 4 9 12 4 349 346 351 352 349
235 236 236 236 236 237 237 237 238 239 241 243 244 245 246 246 245 241 238 235 234 236 238 238 237 237 238 240 240 239 241 243 245 243 241 243 246 247 248 251 254 256 257 259 261 265 269 275 281 288 296 302 304 308 316 320 322 329 333 329 331 339 340 338 339 338 336 336 341 349 347 346 350 353 360 14 19 18 11 353 349 351 351 349 347
235 236 237 238 238 238 238 239 239 239 241 243 245 246 247 248 248 246 243 240 236 235 236 237 238 238 239 240 241 241 241 244 246 247 247 246 248 251 252 253 255 256 258 259 260 263 267 272 277 285 293 298 301 307 314 320 323 327 328 325 328 336 337 335 333 332 335 338 346 353 347 343 350 354 3 17 18 11 359 350 351 350 348 346 341
236 237 238 238 239 239 239 239 240 240 240 242 244 246 247 248 248 249 247 245 242 240 238 238 239 240 240 241 242 242 242 244 246 248 249 248 249 253 254 256 257 258 260 262 263 266 269 273 277 284 291 294 299 307 314 321 324 324 325 324 327 332 333 330 329 331 336 338 343 351 346 339 347 353 5 15 11 358 351 350 349 349 345 340 335
237 237 237 238 239 240 240 240 240 240 241 242 244 246 247 248 248 249 250 249 247 246 243 242 241 242 243 242 241 241 241 242 244 245 247 248 250 253 256 257 258 259 262 264 266 269 272 276 279 285 290 292 298 306 313 320 322 321 324 324 326 329 328 328 330 333 337 336 338 347 346 339 344 350 7 14 4 350 347 346 346 346 340 335 335
237 238 237 237 238 239 240 240 240 240 241 243 245 245 246 247 247 248 250 250 250 249 248 247 246 245 245 246 245 243 242 241 242 243 245 246 248 251 255 256 255 255 258 263 267 270 273 276 281 286 289 292 299 307 313 319 320 320 321 322 324 326 325 326 329 333 336 334 336 344 346 341 344 349 4 9 356 346 345 342 341 339 334 335 337
237 238 238 238 238 239 240 241 241 241 242 243 245 246 246 246 246 246 248 249 250 251 251 250 250 249 248 249 249 248 246 245 245 245 246 245 245 247 249 253 256 257 257 261 266 269 272 277 281 284 286 291 299 307 314 318 318 318 318 319 322 322 321 323 325 331 335 333 334 341 339 338 347 351 360 359 348 344 343 337 335 335 334 336 337
236 237 238 238 238 238 239 240 241 242 243 244 245 246 247 246 246 246 246 248 249 250 251 251 252 251 251 251 252 252 252 250 250 251 250 247 245 244 246 249 254 257 258 261 265 267 271 275 278 280 283 290 297 305 313 315 314 313 313 315 318 317 319 323 324 330 334 329 331 336 330 332 346 351 353 348 340 340 340 335 336 335 334 336 338
235 236 238 238 239 239 239 240 242 243 244 244 244 245 246 247 247 247 247 248 249 250 251 251 252 252 252 252 253 254 254 254 255 255 254 251 248 246 245 248 252 255 257 259 262 265 268 271 274 279 285 291 296 302 309 307 304 304 305 309 314 316 319 322 323 328 329 325 326 328 325 332 342 346 346 338 334 337 337 337 338 334 335 341 343
234 236 237 238 239 240 239 239 241 242 244 244 245 245 245 246 247 247 247 247 248 250 250 250 251 251 252 252 253 254 255 256 256 257 257 256 254 252 250 251 253 255 256 257 259 263 266 269 274 280 287 292 295 298 299 296 296 297 300 306 311 314 316 317 319 323 323 320 321 322 327 334 336 339 343 336 332 334 332 337 339 335 338 345 345
235 236 237 238 239 240 240 239 240 242 244 245 245 245 245 245 245 246 247 247 248 249 249 249 248 249 250 251 252 252 253 254 255 256 257 258 258 257 256 255 255 256 256 256 258 262 266 270 275 280 286 290 292 291 291 293 295 296 297 301 305 308 309 309 313 317 317 316 317 318 327 332 331 337 345 338 331 332 326 333 338 338 341 346 344
234 235 236 238 239 239 240 239 239 241 242 244 245 245 245 244 244 244 245 245 246 248 248 247 246 246 247 248 249 251 252 253 253 254 256 257 258 258 258 258 258 258 256 255 257 261 265 269 274 278 282 286 287 288 290 293 293 290 290 292 296 300 301 302 307 311 312 313 315 318 326 330 331 337 345 341 336 336 329 332 337 340 343 343 344
236 236 236 238 239 239 239 240 240 241 242 244 244 245 245 244 243 242 243 244 245 246 246 245 243 243 244 245 247 249 250 251 251 253 254 254 255 255 255 256 256 256 256 255 256 259 262 266 270 274 278 283 286 288 289 288 284 280 281 284 288 291 292 294 301 305 307 310 315 321 325 329 333 339 344 348 350 347 333 331 334 338 341 342 346
239 238 236 237 238 239 239 240 241 242 243 244 245 245 244 243 242 242 242 242 243 244 245 244 244 243 243 243 244 246 248 250 251 253 253 251 250 250 251 253 254 256 258 259 260 262 263 266 270 274 278 282 284 285 285 281 275 274 276 280 282 283 286 291 297 300 302 307 315 321 325 329 336 341 343 351 0 355 339 334 334 338 343 346 351
Height
1590 1590 1591 1591 1591 1591 1592 1592 1592 1592 1593 1593 1593 1594 1595 1595 1595 1595 1595 1595 1595 1595 1596 1596 1596 1596 1597 1597 1597 1596 1596 1596 1597 1597 1597 1598 1597 1597 1597 1597 1597 1597 1597 1597 1597 1597 1597 1597 1597 1597 1597 1597 1597 1597 1596 1596 1596 1596 1596 1595 1595 1595 1594 1594 1593 1593 1592 1592 1591 1591 1590 1590 1589 1589 1588 1587 1587 1586 1585 1584 1584 1583 1582 1581 1581
1591 1591 1592 1592 1592 1592 1592 1593 1593 1593 1593 1593 1594 1595 1595 1595 1595 1595 1596 1596 1596 1596 1596 1597 1597 1597 1597 1597 1597 1597 1597 1597 1597 1597 1598 1598 1598 1598 1598 1598 1598 1598 1598 1597 1597 1598 1598 1598 1598 1598 1598 1597 1597 1597 1597 1597 1596 1596 1596 1596 1596 1595 1594 1594 1593 1593 1592 1592 1592 1591 1590 1590 1589 1589 1588 1587 1587 1586 1585 1585 1584 1583 1582 1582 1581
1592 1592 1592 1592 1592 1593 1593 1593 1594 1594 1594 1594 1595 1595 1596 1596 1596 1596 1596 1596 1596 1596 1597 1597 1598 1598 1598 1598 1598 1598 1598 1598 1598 1598 1599 1599 1599 1599 1599 1599 1598 1598 1598 1598 1598 1598 1598 1598 1598 1598 1598 1598 1598 1597 1597 1597 1597 1597 1596 1596 1596 1595 1595 1594 1594 1593 1593 1592 1592 1591 1590 1590 1589 1589 1588 1587 1587 1586 1586 1585 1584 1584 1583 1582 1582
1592 1592 1592 1593 1593 1593 1594 1594 1595 1595 1595 1595 1595 1595 1596 1596 1596 1596 1596 1596 1597 1597 1597 1598 1598 1598 1598 1598 1599 1599 1599 1599 1599 1600 1600 1600 1600 1600 1600 1600 1599 1599 1599 1599 1599 1599 1599 1599 1599 1599 1598 1598 1598 1598 1597 1597 1597 1597 1597 1596 1596 1595 1595 1594 1594 1593 1593 1592 1592 1591 1590 1590 1589 1589 1588 1588 1587 1587 1586 1585 1585 1584 1584 1583 1582
1593 1593 1593 1593 1594 1594 1594 1594 1595 1595 1595 1596 1596 1596 1596 1596 1596 1597 1597 1597 1597 1597 1597 1598 1599 1599 1599 1599 1599 1600 1600 1600 1600 1601 1601 1601 1601 1601 1600 1600 1600 1600 1599 1599 1599 1599 1599 1599 1599 1599 1599 1598 1598 1598 1598 1597 1597 1597 1597 1596 1596 1595 1595 1594 1594 1593 1593 1592 1592 1591 1591 1590 1590 1589 1589 1588 1588 1587 1587 1586 1585 1585 1584 1584 1583
1593 1594 1594 1594 1594 1594 1594 1594 1595 1595 1595 1596 1596 1596 1597 1597 1597 1597 1597 1598 1598 1598 1597 1598 1599 1599 1599 1600 1600 1600 1601 1601 1601 1601 1602 1601 1601 1601 1601 1601 1601 1600 1600 1600 1600 1600 1599 1599 1599 1599 1598 1598 1598 1598 1598 1598 1597 1597 1597 1596 1596 1595 1595 1595 1594 1594 1593 1592 1592 1591 1591 1590 1590 1590 1589 1589 1588 1588 1587 1586 1586 1585 1585 1584 1584
1594 1594 1594 1595 1595 1595 1595 1595 1595 1595 1595 1596 1596 1596 1597 1597 1597 1597 1598 1598 1598 1598 1598 1598 1599 1599 1600 1600 1601 1601 1601 1602 1602 1602 1602 1602 1602 1602 1602 1601 1601 1601 1601 1601 1600 1600 1600 1599 1599 1599 1598 1598 1598 1598 1598 1598 1598 1597 1597 1596 1596 1595 1595 1595 1594 1594 1593 1593 1592 1592 1591 1591 1590 1590 1590 1589 1589 1588 1588 1587 1586 1586 1585 1585 1584
1594 1594 1595 1595 1595 1595 1595 1595 1595 1595 1595 1595 1596 1596 1597 1597 1597 1598 1598 1598 1599 1599 1599 1599 1599 1600 1600 1601 1601 1602 1602 1602 1603 1603 1603 1603 1603 1603 1602 1602 1602 1602 1602 1601 1601 1600 1600 1600 1599 1599 1599 1599 1598 1598 1598 1598 1598 1597 1597 1596 1596 1595 1595 1595 1594 1594 1593 1593 1593 1592 1592 1591 1591 1591 1590 1590 1589 1589 1588 1588 1587 1586 1586 1585 1585
1594 1595 1595 1595 1595 1595 1595 1595 1595 1595 1596 1596 1596 1596 1597 1597 1597 1598 1598 1599 1599 1600 1600 1600 1600 1601 1602 1602 1602 1602 1603 1603 1603 1604 1604 1604 1604 1604 1603 1603 1602 1602 1602 1602 1601 1601 1600 1600 1600 1599 1599 1599 1599 1599 1598 1598 1598 1597 1597 1597 1596 1596 1595 1595 1595 1594 1594 1594 1593 1593 1592 1592 1592 1591 1591 1590 1590 1589 1589 1588 1588 1587 1586 1586 1585
1594 1595 1595 1595 1595 1596 1596 1596 1596 1596 1596 1596 1596 1596 1597 1597 1598 1598 1599 1599 1600 1600 1600 1601 1601 1602 1602 1603 1603 1603 1603 1604 1604 1604 1604 1604 1604 1604 1604 1603 1603 1602 1602 1602 1602 1601 1600 1600 1600 1600 1599 1599 1599 1599 1598 1598 1598 1597 1597 1597 1596 1596 1596 1595 1595 1595 1594 1594 1594 1593 1593 1593 1592 1592 1591 1591 1590 1590 1589 1589 1588 1587 1587 1586 1586
1594 1595 1595 1595 1595 1596 1596 1596 1596 1597 1597 1597 1597 1597 1597 1597 1598 1599 1599 1600 1600 1601 1601 1601 1602 1602 1603 1604 1604 1604 1604 1604 1604 1604 1604 1605 1605 1605 1604 1604 1603 1603 1603 1602 1602 1601 1601 1600 1600 1600 1600 1600 1599 1599 1599 1598 1598 1598 1597 1597 1597 1597 1596 1596 1596 1595 1595 1595 1594 1594 1593 1593 1592 1592 1592 1591 1591 1590 1589 1589 1588 1588 1587 1586 1586
1594 1595 1595 1595 1596 1596 1596 1597 1597 1597 1597 1597 1597 1597 1598 1598 1598 1599 1600 1600 1601 1601 1601 1601 1602 1603 1604 1604 1604 1605 1604 1604 1604 1604 1605 1605 1605 1605 1605 1604 1604 1603 1603 1603 1602 1602 1601 1601 1601 1600 1600 1600 1599 1599 1599 1598 1598 1598 1598 1597 1597 1597 1597 1597 1596 1596 1595 1595 1595 1594 1594 1593 1593 1592 1592 1591 1591 1590 1590 1589 1588 1588 1587 1586 1586
1594 1594 1595 1595 1596 1596 1596 1597 1597 1597 1597 1597 1597 1597 1598 1598 1598 1599 1600 1600 1601 1602 1602 1602 1602 1603 1604 1604 1605 1605 1605 1605 1605 1605 1605 1605 1605 1605 1605 1605 1604 1604 1603 1603 1603 1602 1602 1602 1601 1601 1600 1600 1600 1599 1599 1599 1598 1598 1598 1598 1598 1597 1597 1597 1597 1596 1596 1595 1595 1594 1594 1594 1593 1593 1592 1592 1591 1590 1590 1589 1589 1588 1587 1587 1586
1594 1594 1595 1595 1596 1596 1597 1597 1597 1597 1598 1597 1598 1598 1598 1598 1599 1599 1600 1600 1601 1602 1602 1602 1603 1604 1604 1604 1605 1605 1605 1605 1605 1605 1605 1605 1605 1605 1605 1605 1605 1604 1603 1603 1603 1603 1602 1602 1601 1601 1601 1600 1600 1600 1599 1599 1599 1599 1598 1598 1598 1598 1598 1597 1597 1597 1596 1596 1595 1595 1594 1594 1594 1593 1592 1592 1591 1591 1590 1589 1589 1588 1587 1587 1586
1594 1594 1595 1595 1596 1597 1597 1597 1598 1598 1598 1598 1598 1598 1598 1598 1599 1599 1600 1600 1601 1602 1602 1603 1603 1604 1604 1604 1605 1605 1605 1605 1604 1605 1605 1605 1605 1605 1605 1605 1604 1604 1604 1604 1603 1603 1603 1602 1602 1601 1601 1601 1600 1600 1600 1600 1599 1599 1599 1598 1598 1598 1598 1598 1597 1597 1596 1596 1595 1595 1594 1594 1594 1593 1593 1592 1591 1591 1590 1589 1589 1588 1587 1586 1585
1594 1594 1595 1595 1596 1597 1597 1597 1598 1598 1598 1598 1598 1598 1598 1598 1599 1599 1600 1600 1601 1601 1602 1602 1603 1604 1604 1604 1605 1605 1605 1605 1604 1605 1605 1605 1605 1605 1605 1605 1604 1605 1605 1604 1604 1603 1603 1602 1602 1602 1601 1601 1601 1601 1600 1600 1600 1599 1599 1599 1599 1598 1598 1598 1598 1597 1597 1596 1595 1595 1595 1594 1594 1593 1593 1592 1591 1591 1590 1589 1588 1587 1587 1586 1585
1593 1594 1595 1596 1596 1597 1597 1597 1598 1598 1598 1598 1598 1598 1598 1598 1599 1599 1600 1600 1601 1601 1602 1602 1603 1604 1604 1604 1605 1605 1604 1604 1605 1605 1605 1605 1605 1605 1605 1605 1604 1605 1605 1605 1604 1604 1603 1603 1603 1602 1602 1601 1601 1601 1601 1601 1600 1600 1600 1599 1599 1599 1599 1598 1598 1597 1597 1596 1595 1595 1595 1594 1594 1593 1592 1592 1591 1590 1589 1588 1588 1587 1586 1585 1584
1593 1594 1595 1595 1596 1597 1597 1597 1598 1598 1598 1598 1598 1598 1599 1599 1599 1599 1600 1600 1600 1601 1602 1602 1603 1603 1604 1604 1604 1604 1604 1604 1605 1605 1605 1605 1605 1605 1604 1604 1604 1605 1605 1605 1605 1604 1604 1604 1603 1603 1602 1602 1602 1602 1601 1601 1600 1600 1600 1600 1599 1599 1599 1598 1598 1597 1597 1596 1595 1595 1594 1594 1593 1592 1592 1591 1590 1589 1589 1588 1587 1586 1585 1584 1583
1593 1594 1594 1595 1596 1596 1597 1597 1598 1598 1598 1598 1598 1598 1599 1599 1599 1599 1599 1600 1600 1601 1601 1602 1603 1603 1604 1604 1604 1604 1604 1604 1605 1605 1605 1605 1604 1604 1604 1604 1605 1605 1605 1605 1605 1605 1604 1604 1604 1603 1603 1602 1602 1602 1602 1601 1601 1601 1600 1600 1599 1599 1599 1598 1598 1597 1597 1596 1595 1595 1594 1593 1593 1592 1591 1590 1589 1589 1588 1587 1586 1585 1584 1583 1582
1593 1593 1594 1595 1595 1596 1597 1597 1597 1598 1598 1598 1598 1599 1599 1599 1599 1599 1599 1600 1600 1601 1601 1602 1603 1603 1604 1604 1604 1604 1603 1603 1604 1605 1605 1605 1604 1604 1604 1604 1604 1605 1605 1605 1605 1605 1604 1604 1604 1603 1603 1603 1602 1602 1602 1601 1601 1601 1601 1600 1599 1599 1599 1598 1598 1597 1597 1596 1595 1594 1594 1593 1592 1591 1590 1589 1589 1588 1587 1586 1585 1584 1583 1582 1581
1593 1593 1594 1594 1595 1596 1596 1597 1597 1597 1598 1598 1598 1599 1599 1599 1599 1599 1599 1600 1600 1601 1601 1602 1602 1603 1603 1604 1603 1603 1603 1603 1604 1604 1605 1604 1604 1604 1604 1604 1604 1604 1604 1605 1605 1604 1604 1604 1603 1603 1603 1603 1603 1602 1602 1602 1601 1601 1601 1600 1600 1599 1599 1599 1598 1597 1597 1596 1595 1594 1593 1593 1592 1591 1590 1588 1587 1587 1586 1585 1584 1583 1582 1581 1580
1592 1593 1593 1594 1594 1595 1596 1596 1597 1597 1597 1598 1598 1599 1599 1599 1599 1599 1599 1600 1600 1600 1601 1601 1602 1602 1603 1603 1603 1603 1603 1603 1604 1604 1604 1604 1604 1604 1604 1604 1604 1604 1604 1604 1604 1604 1604 1603 1603 1603 1603 1603 1603 1602 1602 1602 1601 1601 1601 1601 1600 1600 1599 1599 1598 1598 1597 1596 1595 1594 1593 1592 1591 1589 1588 1587 1586 1585 1584 1583 1582 1581 1580 1579 1578
1591 1592 1593 1593 1594 1594 1595 1596 1596 1597 1597 1597 1598 1598 1598 1599 1599 1599 1599 1599 1600 1600 1601 1601 1602 1602 1602 1602 1603 1603 1603 1603 1604 1604 1604 1604 1604 1604 1604 1604 1604 1604 1604 1604 1604 1604 1604 1603 1603 1603 1603 1603 1603 1602 1602 1602 1602 1601 1601 1601 1601 1600 1600 1599 1598 1598 1597 1596 1595 1593 1592 1591 1589 1588 1586 1585 1584 1583 1582 1581 1580 1579 1578 1577 1576
1590 1591 1592 1592 1593 1594 1594 1595 1595 1596 1596 1597 1597 1598 1598 1598 1599 1599 1599 1599 1599 1600 1600 1601 1601 1601 1602 1602 1602 1602 1603 1603 1603 1604 1604 1604 1604 1604 1604 1604 1604 1604 1604 1604 1604 1604 1603 1603 1603 1603 1603 1603 1603 1602 1602 1602 1602 1602 1601 1601 1601 1600 1600 1599 1598 1597 1596 1595 1594 1592 1591 1589 1587 1586 1585 1583 1582 1581 1579 1578 1577 1576 1575 1574 1573
1588 1589 1590 1591 1592 1593 1593 1594 1595 1595 1596 1596 1596 1597 1598 1598 1598 1599 1599 1599 1599 1600 1600 1600 1601 1601 1601 1601 1601 1602 1602 1603 1603 1603 1604 1604 1604 1604 1604 1604 1604 1604 1604 1604 1603 1603 1603 1603 1603 1602 1602 1602 1602 1602 1602 1601 1601 1601 1601 1601 1601 1600 1599 1599 1598 1596 1595 1594 1592 1591 1589 1587 1586 1585 1583 1582 1580 1579 1578 1576 1575 1574 1572 1571 1570
1587 1588 1589 1591 1592 1592 1593 1594 1594 1595 1595 1595 1596 1596 1597 1597 1597 1598 1599 1599 1599 1599 1600 1600 1600 1600 1600 1601 1601 1601 1602 1602 1603 1603 1603 1603 1603 1604 1604 1603 1603 1603 1603 1603 1603 1602 1602 1602 1602 1602 1602 1601 1602 1602 1601 1601 1601 1601 1601 1600 1600 1599 1598 1597 1596 1595 1594 1592 1591 1589 1588 1586 1585 1583 1582 1581 1579 1578 1576 1575 1573 1572 1570 1569 1567
1586 1587 1589 1589 1591 1591 1592 1593 1593 1594 1594 1595 1595 1595 1596 1596 1597 1597 1598 1599 1599 1599 1599 1599 1599 1600 1600 1600 1601 1601 1601 1602 1602 1602 1603 1603 1603 1603 1603 1603 1603 1603 1603 1603 1602 1602 1601 1601 1601 1601 1601 1601 1601 1601 1601 1600 1600 1600 1600 1599 1598 1598 1597 1596 1595 1594 1592 1591 1590 1588 1587 1585 1584 1582 1581 1579 1578 1577 1575 1574 1572 1570 1568 1567 1565
1585 1586 1588 1588 1589 1590 1591 1592 1593 1593 1594 1594 1594 1594 1595 1595 1596 1597 1597 1598 1598 1598 1599 1599 1599 1599 1599 1600 1600 1600 1601 1601 1602 1602 1602 1602 1602 1602 1603 1603 1603 1602 1602 1602 1601 1601 1601 1601 1601 1601 1600 1600 1600 1600 1600 1600 1599 1599 1599 1598 1597 1596 1596 1595 1594 1592 1591 1590 1588 1587 1585 1584 1582 1581 1580 1578 1577 1575 1573 1572 1570 1568 1566 1564 1563
1584 1585 1586 1587 1588 1589 1590 1591 1591 1592 1593 1593 1593 1594 1594 1595 1595 1596 1596 1597 1597 1598 1598 1598 1598 1599 1599 1599 1600 1600 1600 1600 1601 1601 1601 1601 1601 1601 1602 1602 1602 1602 1601 1601 1600 1601 1601 1600 1600 1600 1600 1600 1599 1599 1599 1598 1598 1598 1597 1597 1596 1595 1594 1593 1592 1591 1590 1588 1587 1586 1584 1583 1581 1580 1578 1577 1575 1573 1572 1570 1568 1566 1564 1562 1560
1583 1584 1585 1586 1587 1588 1589 1589 1590 1591 1592 1592 1592 1593 1593 1594 1594 1595 1595 1596 1596 1597 1597 1597 1598 1598 1598 1598 1599 1599 1600 1600 1600 1601 1601 1601 1600 1601 1601 1601 1601 1601 1600 1600 1599 1599 1600 1600 1600 1600 1600 1599 1599 1598 1598 1597 1598 1597 1596 1596 1595 1594 1593 1591 1590 1589 1588 1587 1586 1585 1583 1582 1580 1578 1577 1575 1573 1571 1569 1567 1565 1563 1561 1559 1556
1581 1582 1584 1584 1586 1586 1587 1588 1589 1589 1590 1591 1591 1592 1592 1593 1593 1594 1594 1595 1595 1596 1596 1596 1597 1597 1597 1597 1598 1598 1599 1599 1599 1600 1600 1600 1600 1600 1600 1600 1600 1600 1599 1599 1598 1598 1599 1599 1599 1599 1599 1599 1598 1598 1597 1597 1597 1597 1596 1595 1594 1593 1591 1590 1589 1588 1587 1586 1585 1583 1582 1580 1578 1577 1575 1573 1571 1569 1567 1565 1562 1560 1558 1555 1553
1579 1580 1582 1583 1584 1585 1585 1586 1587 1588 1588 1589 1590 1590 1591 1591 1592 1592 1593 1593 1594 1594 1595 1595 1596 1596 1596 1596 1597 1597 1598 1598 1598 1599 1599 1599 1599 1599 1599 1599 1599 1599 1598 1598 1598 1597 1598 1598 1598 1599 1598 1598 1598 1597 1596 1596 1596 1595 1594 1594 1593 1592 1590 1589 1589 1587 1586 1585 1584 1582 1580 1578 1577 1575 1573 1571 1569 1567 1564 1562 1559 1557 1555 1553 1551
1576 1578 1580 1581 1582 1583 1584 1585 1585 1586 1587 1587 1588 1589 1589 1590 1590 1591 1592 1592 1592 1593 1594 1594 1594 1595 1595 1595 1596 1596 1596 1597 1597 1598 1598 1598 1598 1598 1598 1598 1598 1598 1598 1597 1597 1596 1597 1597 1597 1598 1597 1597 1597 1596 1595 1595 1595 1594 1593 1593 1592 1591 1590 1588 1587 1586 1585 1584 1582 1580 1579 1577 1575 1573 1571 1569 1567 1564 1562 1559 1557 1555 1553 1551 1550
1574 1576 1578 1579 1580 1581 1582 1583 1583 1584 1585 1585 1586 1587 1587 1588 1589 1589 1590 1591 1591 1591 1592 1592 1593 1593 1594 1594 1594 1595 1595 1596 1596 1596 1597 1597 1597 1597 1597 1597 1596 1597 1597 1596 1596 1595 1595 1596 1596 1596 1597 1596 1595 1595 1594 1593 1593 1593 1592 1592 1591 1590 1589 1587 1586 1585 1583 1582 1581 1579 1578 1576 1574 1572 1569 1567 1564 1562 1560 1558 1556 1554 1552 1550 1549
1571 1573 1575 1577 1578 1579 1580 1581 1581 1582 1583 1584 1584 1585 1586 1586 1587 1588 1588 1589 1589 1590 1590 1591 1591 1592 1592 1592 1593 1593 1594 1594 1594 1595 1595 1595 1595 1595 1595 1595 1595 1595 1595 1595 1595 1594 1594 1594 1595 1595 1595 1595 1594 1594 1593 1592 1592 1591 1591 1590 1590 1589 1587 1586 1584 1583 1582 1581 1580 1578 1576 1575 1572 1570 1567 1565 1563 1561 1559 1557 1555 1553 1551 1550 1548
1568 1570 1572 1574 1575 1576 1577 1578 1579 1580 1581 1581 1582 1583 1583 1584 1585 1586 1587 1587 1588 1588 1589 1589 1589 1590 1590 1591 1591 1592 1592 1592 1593 1593 1594 1594 1594 1594 1594 1594 1594 1594 1594 1594 1593 1593 1593 1592 1592 1593 1593 1593 1593 1593 1592 1591 1591 1590 1589 1589 1588 1586 1585 1584 1583 1582 1580 1579 1578 1577 1576 1573 1571 1568 1566 1564 1562 1560 1558 1556 1555 1553 1551 1548 1546
1565 1567 1569 1570 1572 1573 1574 1575 1576 1577 1578 1579 1580 1580 1581 1582 1583 1584 1585 1585 1586 1587 1587 1587 1588 1588 1588 1589 1590 1590 1590 1591 1591 1591 1592 1592 1592 1592 1592 1592 1592 1592 1592 1592 1592 1592 1591 1590 1590 1591 1591 1591 1591 1591 1591 1590 1589 1588 1588 1587 1586 1584 1583 1582 1581 1580 1579 1578 1578 1577 1575 1572 1570 1567 1565 1564 1562 1560 1558 1556 1554 1551 1549 1548 1546
1561 1563 1565 1566 1568 1569 1571 1572 1573 1574 1575 1576 1577 1578 1579 1580 1581 1582 1583 1583 1584 1585 1585 1586 1586 1586 1586 1587 1588 1588 1589 1589 1589 1590 1590 1590 1590 1590 1590 1590 1590 1591 1590 1590 1590 1590 1590 1589 1589 1589 1590 1590 1589 1589 1589 1589 1587 1586 1585 1585 1584 1583 1581 1580 1580 1579 1578 1578 1577 1576 1574 1571 1569 1567 1565 1564 1562 1560 1557 1555 1553 1551 1549 1547 1546
1558 1560 1561 1563 1565 1566 1568 1569 1570 1572 1573 1574 1575 1576 1576 1577 1578 1579 1580 1581 1582 1582 1583 1584 1584 1585 1585 1585 1586 1586 1587 1587 1587 1588 1588 1589 1589 1588 1588 1589 1589 1589 1588 1589 1589 1589 1588 1588 1588 1588 1588 1588 1588 1587 1587 1587 1586 1585 1584 1582 1582 1581 1580 1579 1578 1578 1578 1577 1576 1575 1573 1571 1569 1567 1565 1564 1561 1559 1556 1554 1552 1551 1549 1547 1545
1554 1556 1558 1560 1562 1563 1565 1566 1568 1569 1570 1571 1572 1573 1574 1575 1575 1577 1578 1579 1580 1580 1581 1582 1582 1583 1583 1583 1584 1584 1585 1585 1586 1586 1587 1587 1587 1586 1586 1587 1587 1587 1586 1587 1587 1587 1587 1587 1587 1587 1587 1587 1586 1586 1585 1585 1584 1584 1583 1582 1580 1580 1579 1578 1577 1577 1577 1576 1575 1574 1572 1570 1569 1568 1565 1564 1561 1558 1555 1554 1552 1550 1548 1547 1545
1551 1553 1555 1557 1558 1560 1561 1563 1564 1566 1567 1568 1569 1570 1571 1572 1573 1574 1575 1576 1577 1578 1578 1579 1580 1580 1581 1581 1581 1582 1582 1583 1584 1584 1584 1585 1585 1584 1584 1584 1584 1585 1585 1585 1585 1585 1585 1586 1586 1586 1586 1585 1585 1584 1583 1583 1583 1582 1582 1581 1579 1579 1578 1577 1577 1576 1575 1575 1574 1573 1572 1570 1569 1567 1565 1563 1560 1557 1555 1553 1551 1550 1548 1546 1544
1547 1549 1552 1553 1555 1556 1558 1559 1561 1562 1563 1564 1565 1567 1568 1569 1570 1571 1572 1572 1574 1574 1576 1576 1577 1578 1578 1579 1579 1580 1580 1581 1581 1582 1582 1582 1582 1582 1582 1582 1582 1583 1583 1583 1583 1583 1584 1584 1584 1585 1585 1583 1583 1583 1582 1581 1581 1581 1580 1579 1578 1578 1577 1576 1575 1575 1574 1573 1573 1573 1571 1569 1568 1567 1565 1562 1559 1556 1554 1553 1551 1550 1548 1545 1543
1544 1546 1548 1549 1551 1552 1554 1555 1557 1558 1559 1560 1562 1564 1565 1566 1568 1568 1569 1570 1570 1571 1572 1573 1574 1575 1575 1576 1576 1577 1577 1578 1578 1579 1579 1580 1580 1580 1580 1580 1580 1581 1581 1581 1581 1582 1582 1582 1583 1583 1583 1581 1581 1581 1580 1580 1579 1579 1578 1578 1577 1576 1575 1575 1574 1573 1572 1571 1571 1571 1570 1569 1567 1565 1563 1561 1559 1556 1554 1552 1551 1549 1547 1545 1542
1540 1542 1544 1545 1547 1549 1550 1551 1553 1554 1555 1557 1559 1560 1562 1563 1564 1565 1566 1567 1567 1568 1569 1570 1571 1572 1572 1573 1573 1574 1575 1575 1576 1576 1576 1577 1577 1578 1578 1578 1578 1579 1580 1580 1580 1581 1581 1581 1581 1581 1581 1580 1579 1579 1579 1579 1578 1577 1576 1576 1576 1575 1574 1574 1573 1572 1571 1569 1568 1568 1567 1567 1566 1564 1562 1560 1557 1555 1554 1552 1550 1548 1546 1544 1542
1536 1538 1539 1541 1543 1545 1546 1547 1549 1550 1552 1553 1555 1557 1558 1560 1561 1562 1563 1564 1564 1565 1566 1567 1568 1569 1569 1570 1570 1571 1571 1572 1573 1573 1574 1574 1575 1575 1575 1575 1576 1576 1577 1578 1579 1579 1579 1579 1579 1579 1579 1579 1577 1577 1578 1577 1576 1575 1574 1574 1574 1573 1573 1572 1571 1570 1569 1567 1566 1566 1565 1564 1563 1562 1561 1558 1556 1554 1553 1551 1549 1547 1545 1544 1542
1532 1533 1535 1537 1539 1541 1542 1544 1545 1546 1548 1550 1552 1553 1555 1557 1558 1560 1560 1561 1562 1562 1563 1564 1565 1565 1566 1566 1567 1567 1568 1569 1569 1570 1571 1571 1572 1573 1573 1573 1573 1574 1575 1576 1577 1577 1577 1577 1577 1577 1577 1577 1576 1575 1576 1576 1574 1573 1572 1572 1572 1571 1571 1570 1569 1568 1567 1565 1564 1564 1563 1562 1561 1560 1559 1557 1554 1553 1552 1550 1548 1546 1544 1543 1541
1527 1529 1532 1533 1535 1536 1538 1540 1542 1543 1544 1546 1548 1550 1552 1554 1556 1557 1558 1559 1559 1560 1560 1561 1561 1562 1562 1563 1563 1564 1564 1565 1566 1567 1568 1569 1569 1570 1570 1570 1570 1571 1571 1573 1574 1575 1575 1575 1575 1574 1574 1575 1574 1574 1574 1573 1572 1571 1570 1570 1569 1569 1568 1567 1566 1566 1564 1563 1562 1562 1561 1560 1559 1559 1558 1555 1553 1552 1551 1549 1547 1545 1543 1542 1540
1524 1526 1528 1530 1531 1533 1535 1537 1538 1539 1540 1542 1544 1546 1548 1551 1553 1554 1555 1556 1557 1557 1557 1558 1558 1558 1559 1559 1560 1560 1561 1561 1562 1563 1565 1566 1566 1566 1567 1567 1567 1568 1568 1569 1571 1572 1572 1572 1572 1572 1572 1572 1572 1572 1571 1570 1569 1568 1567 1567 1567 1566 1565 1564 1564 1563 1562 1561 1561 1560 1559 1558 1557 1557 1556 1553 1552 1551 1550 1548 1546 1544 1542 1541 1540
1520 1522 1524 1526 1528 1530 1532 1533 1535 1536 1537 1539 1541 1543 1545 1548 1550 1552 1553 1553 1554 1554 1554 1554 1554 1555 1555 1556 1556 1556 1557 1557 1558 1560 1561 1562 1563 1563 1563 1563 1564 1564 1564 1566 1567 1568 1569 1569 1569 1569 1569 1569 1569 1569 1568 1567 1566 1565 1564 1564 1564 1563 1562 1561 1561 1561 1560 1559 1559 1558 1557 1556 1555 1554 1554 1552 1551 1550 1549 1547 1545 1543 1542 1541 1539
1515 1518 1520 1523 1525 1527 1529 1530 1531 1533 1534 1536 1538 1540 1542 1544 1547 1549 1550 1551 1551 1551 1550 1551 1551 1551 1551 1552 1552 1553 1553 1553 1554 1556 1558 1559 1559 1559 1559 1560 1560 1560 1560 1562 1563 1565 1565 1566 1566 1566 1566 1566 1566 1566 1565 1564 1563 1562 1561 1561 1561 1560 1559 1559 1558 1558 1557 1557 1556 1556 1555 1554 1553 1552 1551 1551 1549 1548 1547 1545 1544 1543 1542 1540 1539
1511 1514 1517 1520 1522 1523 1525 1527 1529 1530 1532 1533 1535 1537 1539 1541 1544 1546 1547 1548 1548 1548 1548 1548 1547 1547 1548 1548 1549 1549 1549 1550 1551 1552 1554 1555 1555 1555 1556 1557 1556 1556 1557 1559 1560 1561 1562 1562 1563 1563 1563 1563 1562 1561 1561 1560 1559 1558 1558 1557 1557 1557 1556 1556 1556 1555 1555 1554 1553 1553 1553 1552 1551 1549 1548 1548 1548 1547 1546 1544 1542 1541 1540 1539 1538